GW7070 Weather Reports


time (UTC)temp
F
wind
direction
speed
knots
gust
knots
rain 1hr
in
rain 24hr
in
rain mn
in
humidity
%
barometer
mb
20260507192007 85 342 6.1 11.3 0.00 0.00 0.00 81 1015.4
20260507191515 86 306 5.2 12.2 0.00 0.00 0.00 81 1015.4
20260507191010 85 9 5.2 12.2 0.00 0.00 0.00 82 1015.4
20260507190507 85 290 5.2 12.2 0.00 0.00 0.00 81 1015.4
20260507190019 85 352 6.1 12.2 0.00 0.00 0.00 80 1015.5
20260507185511 85 352 7.0 13.9 0.00 0.00 0.00 81 1015.4
20260507185008 84 332 4.3 13.9 0.00 0.00 0.00 81 1015.3
20260507184524 85 315 7.8 13.9 0.00 0.00 0.00 80 1015.4
20260507184007 85 314 8.7 13.9 0.00 0.00 0.00 79 1015.4
20260507183510 86 348 7.0 13.0 0.00 0.00 0.00 79 1015.6
20260507183010 85 346 6.1 14.8 0.00 0.00 0.00 80 1015.6
20260507182504 85 340 6.1 14.8 0.00 0.00 0.00 79 1015.7
20260507182008 86 307 5.2 11.3 0.00 0.00 0.00 79 1015.7
20260507181510 86 348 3.5 12.2 0.00 0.00 0.00 79 1015.9
20260507181004 86 56 5.2 12.2 0.00 0.00 0.00 80 1015.9
20260507180507 85 317 5.2 10.4 0.00 0.00 0.00 79 1015.8
20260507180021 85 334 4.3 10.4 0.00 0.00 0.00 79 1015.9
20260507175509 85 24 4.3 10.4 0.00 0.00 0.00 78 1015.9
20260507175008 85 355 5.2 10.4 0.00 0.00 0.00 78 1016.0
20260507174523 86 11 3.5 10.4 0.00 0.00 0.00 78 1016.2
20260507174010 86 345 4.3 10.4 0.00 0.00 0.00 78 1016.3
20260507173506 85 340 5.2 9.6 0.00 0.00 0.00 78 1016.3
20260507173047 85 355 3.5 9.6 0.00 0.00 0.00 77 1016.3
20260507172504 85 14 3.5 11.3 0.00 0.00 0.00 77 1016.5
20260507172003 86 336 6.1 11.3 0.00 0.00 0.00 75 1016.5
20260507171506 85 21 3.5 13.0 0.00 0.00 0.00 76 1016.6
20260507171004 85 343 5.2 13.0 0.00 0.00 0.00 77 1016.6
20260507170504 84 331 5.2 11.3 0.00 0.00 0.00 78 1016.7
20260507170014 84 333 7.0 12.2 0.00 0.00 0.00 79 1016.7
20260507165507 84 316 7.0 12.2 0.00 0.00 0.00 79 1016.8
20260507165005 85 342 5.2 8.7 0.00 0.00 0.00 78 1016.9
20260507164519 85 355 1.7 6.1 0.00 0.00 0.00 78 1017.1
20260507164007 85 333 2.6 8.7 0.00 0.00 0.00 77 1017.0
20260507163512 86 355 1.7 8.7 0.00 0.00 0.00 77 1017.1
20260507163025 87 352 3.5 8.7 0.00 0.00 0.00 74 1017.2
20260507162517 88 121 0.9 7.8 0.00 0.00 0.00 74 1017.2
20260507162012 88 96 3.5 9.6 0.00 0.00 0.00 74 1017.2
20260507161525 88 138 4.3 11.3 0.00 0.00 0.00 75 1017.2
20260507161003 88 144 6.1 11.3 0.00 0.00 0.00 74 1017.1
20260507160505 87 182 5.2 13.9 0.00 0.00 0.00 74 1017.0
20260507160010 87 156 7.8 13.9 0.00 0.00 0.00 75 1017.2
20260507155514 87 192 7.0 11.3 0.00 0.00 0.00 75 1017.2
20260507155006 87 166 6.1 11.3 0.00 0.00 0.00 75 1017.2
20260507154514 88 154 5.2 11.3 0.00 0.00 0.00 74 1017.2
20260507154011 88 150 5.2 11.3 0.00 0.00 0.00 74 1017.3
20260507153506 88 150 6.1 12.2 0.00 0.00 0.00 73 1017.3
20260507153017 88 151 7.0 12.2 0.00 0.00 0.00 73 1017.3
20260507152508 88 123 3.5 11.3 0.00 0.00 0.00 73 1017.3
20260507152017 87 136 6.1 15.6 0.00 0.00 0.00 73 1017.4
20260507151522 87 132 5.2 15.6 0.00 0.00 0.00 74 1017.4
20260507151011 87 146 5.2 13.9 0.00 0.00 0.00 72 1017.5
20260507150012 88 183 6.1 10.4 0.00 0.00 0.00 71 1017.5
20260507145506 88 82 4.3 13.9 0.00 0.00 0.00 72 1017.5
20260507145007 88 115 5.2 13.9 0.00 0.00 0.00 72 1017.5
20260507144510 88 157 7.8 13.9 0.00 0.00 0.00 72 1017.5
20260507144006 87 126 4.3 9.6 0.00 0.00 0.00 74 1017.5
20260507143510 87 156 5.2 12.2 0.00 0.00 0.00 75 1017.6
20260507142509 86 111 5.2 11.3 0.00 0.00 0.00 75 1017.7
20260507142022 86 80 5.2 11.3 0.00 0.00 0.00 75 1017.7
20260507141520 86 133 5.2 11.3 0.00 0.00 0.00 75 1017.7
20260507141011 86 78 3.5 8.7 0.00 0.00 0.00 76 1017.7
20260507140509 86 117 2.6 10.4 0.00 0.00 0.00 76 1017.7
20260507140026 85 122 7.0 10.4 0.00 0.00 0.00 76 1017.7
20260507135510 85 87 6.1 10.4 0.00 0.00 0.00 77 1017.7
20260507135011 84 123 3.5 9.6 0.00 0.00 0.00 77 1017.6
20260507134006 85 129 4.3 9.6 0.00 0.00 0.00 76 1017.6
20260507133504 85 121 3.5 10.4 0.00 0.00 0.00 76 1017.6
20260507133017 85 134 6.1 10.4 0.00 0.00 0.00 76 1017.6
20260507132512 85 90 4.3 10.4 0.00 0.00 0.00 77 1017.5
20260507132008 85 78 3.5 11.3 0.00 0.00 0.00 77 1017.6
20260507131007 84 96 6.1 11.3 0.00 0.00 0.00 79 1017.6
20260507130510 84 112 3.5 9.6 0.00 0.00 0.00 80 1017.6
20260507130023 84 161 5.2 9.6 0.00 0.00 0.00 80 1017.5
20260507125511 84 159 4.3 10.4 0.00 0.00 0.00 79 1017.5
20260507125013 84 125 4.3 10.4 0.00 0.00 0.00 80 1017.4
20260507124527 84 124 6.1 10.4 0.00 0.00 0.00 80 1017.4
20260507124008 84 84 4.3 7.8 0.00 0.00 0.00 80 1017.3
20260507123506 83 147 4.3 9.6 0.00 0.00 0.00 81 1017.3
20260507122504 83 126 4.3 10.4 0.00 0.00 0.00 81 1017.1
20260507122004 82 157 3.5 10.4 0.00 0.00 0.00 81 1017.1
20260507121508 82 180 4.3 10.4 0.00 0.00 0.00 81 1017.0
20260507121006 82 157 4.3 10.4 0.00 0.00 0.00 82 1016.9
20260507120504 82 146 6.1 12.2 0.00 0.00 0.00 82 1016.8
20260507120007 82 140 6.1 12.2 0.00 0.00 0.00 82 1016.6
20260507115505 82 156 6.1 11.3 0.00 0.00 0.00 81 1016.6
20260507115004 82 116 7.0 10.4 0.00 0.00 0.00 81 1016.6
20260507114505 82 129 5.2 8.7 0.00 0.00 0.00 82 1016.6
20260507113505 81 94 2.6 6.1 0.00 0.00 0.00 83 1016.5
20260507112506 80 136 2.6 7.8 0.00 0.00 0.00 85 1016.5
20260507111008 79 121 2.6 6.1 0.00 0.00 0.00 87 1016.5
20260507110504 78 109 3.5 6.1 0.00 0.00 0.00 88 1016.5
20260507110008 77 107 1.7 5.2 0.00 0.00 0.00 89 1016.5
20260507105506 76 101 2.6 5.2 0.00 0.00 0.00 90 1016.6
20260507105003 76 95 2.6 5.2 0.00 0.00 0.00 91 1016.5
20260507104511 75 98 0.9 3.5 0.00 0.00 0.00 91 1016.5
20260507104005 74 95 0.9 2.6 0.00 0.00 0.00 91 1016.4
20260507103504 74 90 0.9 2.6 0.00 0.00 0.00 91 1016.4
20260507103007 74 82 0.9 2.6 0.00 0.00 0.00 92 1016.3
20260507102505 74 78 0.9 2.6 0.00 0.00 0.00 92 1016.3
20260507102007 73 78 0.9 3.5 0.00 0.00 0.00 92 1016.2
20260507101511 73 78 1.7 3.5 0.00 0.00 0.00 93 1016.1
20260507101007 72 96 0.9 2.6 0.00 0.00 0.00 92 1016.0
20260507100506 72 96 0.9 3.5 0.00 0.00 0.00 92 1015.9
20260507100017 72 96 1.7 3.5 0.00 0.00 0.00 93 1015.8
20260507095504 72 96 0.0 2.6 0.00 0.00 0.00 93 1015.7
20260507095004 72 96 0.9 2.6 0.00 0.00 0.00 93 1015.6
20260507094512 72 96 0.0 2.6 0.00 0.00 0.00 93 1015.6
20260507094013 72 96 0.9 2.6 0.00 0.00 0.00 93 1015.6
20260507093506 72 96 0.0 2.6 0.00 0.00 0.00 93 1015.6
20260507093013 72 96 0.0 1.7 0.00 0.00 0.00 93 1015.7
20260507092505 72 96 0.0 1.7 0.00 0.00 0.00 93 1015.7
20260507092005 72 96 0.0 1.7 0.00 0.00 0.00 92 1015.8
20260507091506 72 96 0.9 2.6 0.00 0.00 0.00 92 1015.8
20260507091007 72 96 0.0 2.6 0.00 0.00 0.00 92 1015.8
20260507090507 72 96 0.9 2.6 0.00 0.00 0.00 92 1015.9
20260507090012 72 96 0.9 2.6 0.00 0.00 0.00 92 1015.9
20260507085507 72 96 0.9 2.6 0.00 0.00 0.00 92 1015.8
20260507085008 72 96 0.9 3.5 0.00 0.00 0.00 92 1015.9
20260507084514 72 96 0.0 3.5 0.00 0.00 0.00 92 1015.9
20260507084007 72 96 0.9 3.5 0.00 0.00 0.00 92 1015.9
20260507083504 72 96 0.0 3.5 0.00 0.00 0.00 92 1015.9
20260507083016 72 97 0.0 3.5 0.00 0.00 0.00 92 1016.0
20260507082504 72 98 0.0 3.5 0.00 0.00 0.00 93 1016.0
20260507082007 72 103 0.9 3.5 0.00 0.00 0.00 93 1016.0
20260507081515 72 103 0.0 2.6 0.00 0.00 0.00 93 1015.9
20260507081005 72 103 0.0 2.6 0.00 0.00 0.00 93 1015.8
20260507080013 72 103 0.0 2.6 0.00 0.00 0.00 93 1015.8
20260507075008 72 103 0.0 1.7 0.00 0.00 0.00 93 1015.8
20260507074515 72 103 0.0 1.7 0.00 0.00 0.00 93 1015.9
20260507073508 72 103 0.0 2.6 0.00 0.00 0.00 93 1016.0
20260507073017 72 103 0.0 2.6 0.00 0.00 0.00 93 1015.9
20260507072505 72 103 0.0 2.6 0.00 0.00 0.00 93 1016.0
20260507072006 72 103 0.9 2.6 0.00 0.00 0.00 93 1016.1
20260507071518 72 103 0.0 2.6 0.00 0.00 0.00 93 1016.1
20260507071005 72 103 0.9 2.6 0.00 0.00 0.00 93 1016.2
20260507070507 72 103 0.9 2.6 0.00 0.00 0.00 93 1016.2
20260507070026 72 103 0.0 2.6 0.00 0.00 0.00 93 1016.2
20260507065003 73 104 0.0 2.6 0.00 0.00 0.00 93 1016.3
20260507064516 73 104 0.0 1.7 0.00 0.00 0.00 93 1016.4
20260507064008 73 104 0.0 1.7 0.00 0.00 0.00 93 1016.4
20260507063510 73 104 0.0 1.7 0.00 0.00 0.00 93 1016.6
20260507062504 73 104 0.0 3.5 0.00 0.00 0.00 93 1016.6
20260507062004 73 104 0.0 3.5 0.00 0.00 0.00 93 1016.6
20260507061508 73 104 0.0 3.5 0.00 0.00 0.00 93 1016.7
20260507054511 74 112 0.0 2.6 0.00 0.00 0.00 92 1017.2
20260507054004 74 113 0.9 2.6 0.00 0.00 0.00 92 1017.2
20260507053504 74 113 0.0 2.6 0.00 0.00 0.00 92 1017.3
20260507053010 74 113 0.9 2.6 0.00 0.00 0.00 92 1017.3
20260507052504 74 113 0.9 2.6 0.00 0.00 0.00 92 1017.4
20260507052007 74 113 0.9 3.5 0.00 0.00 0.00 92 1017.4
20260507051514 74 113 0.0 3.5 0.00 0.00 0.00 92 1017.5
20260507051005 75 105 0.9 3.5 0.00 0.00 0.00 92 1017.6
20260507050505 75 104 0.9 3.5 0.00 0.00 0.00 92 1017.7
20260507050020 75 112 0.0 3.5 0.00 0.00 0.00 92 1017.7
20260507044509 75 107 0.0 2.6 0.00 0.00 0.00 93 1017.9
20260507043010 76 107 0.0 2.6 0.00 0.00 0.00 92 1018.1
20260507042007 76 107 0.9 1.7 0.00 0.00 0.00 92 1018.2
20260507041513 76 107 0.0 1.7 0.00 0.00 0.00 92 1018.3
20260507041005 76 107 0.0 0.0 0.00 0.00 0.00 92 1018.3
20260507040507 76 107 0.0 0.0 0.00 0.00 0.00 92 1018.4
20260507040013 77 107 0.0 1.7 0.00 0.00 0.00 91 1018.5
20260507035508 77 106 0.0 2.6 0.00 0.00 0.00 91 1018.5
20260507035008 77 107 0.0 2.6 0.00 0.00 0.00 91 1018.4
20260507034513 77 107 0.9 2.6 0.00 0.00 0.00 91 1018.4
20260507033013 77 107 0.9 3.5 0.00 0.00 0.00 91 1018.6
20260507032508 77 107 0.9 3.5 0.00 0.00 0.00 91 1018.7
20260507032017 78 107 0.9 2.6 0.00 0.00 0.00 91 1018.7
20260507031009 78 107 0.0 2.6 0.00 0.00 0.00 91 1018.7
20260507030509 78 107 0.9 3.5 0.00 0.00 0.00 91 1018.8
20260507030017 78 107 0.0 3.5 0.00 0.00 0.00 91 1018.8
20260507025507 78 107 0.9 3.5 0.00 0.00 0.00 91 1018.7
20260507025008 78 107 0.0 1.7 0.00 0.00 0.00 91 1018.7
20260507024514 78 107 0.9 2.6 0.00 0.00 0.00 91 1018.6
20260507024007 78 107 0.0 2.6 0.00 0.00 0.00 91 1018.7
20260507023507 78 107 0.0 2.6 0.00 0.00 0.00 90 1018.7
20260507023010 79 107 0.0 2.6 0.00 0.00 0.00 90 1018.6
20260507021514 79 107 0.9 3.5 0.00 0.00 0.00 90 1018.5
20260507015504 79 107 0.0 2.6 0.00 0.00 0.00 90 1018.4
20260507015009 79 107 0.9 2.6 0.00 0.00 0.00 89 1018.3
20260507014521 79 107 0.0 2.6 0.00 0.00 0.00 89 1018.2
20260507014007 80 107 0.0 2.6 0.00 0.00 0.00 89 1018.2
20260507013508 80 107 0.9 2.6 0.00 0.00 0.00 88 1018.1
20260507013016 80 107 0.9 3.5 0.00 0.00 0.00 87 1018.1
20260507012510 81 106 0.9 4.3 0.00 0.00 0.00 86 1018.1
20260507012009 81 101 1.7 5.2 0.00 0.00 0.00 86 1018.1
20260507011523 81 117 1.7 5.2 0.00 0.00 0.00 86 1018.0
20260507010020 81 109 1.7 7.0 0.00 0.00 0.00 86 1017.9
20260507005007 81 123 2.6 7.8 0.00 0.00 0.00 86 1017.9
20260507004520 81 96 2.6 9.6 0.00 0.00 0.00 86 1017.9
20260507004006 81 138 5.2 9.6 0.00 0.00 0.00 86 1017.8
20260507003507 81 122 3.5 8.7 0.00 0.00 0.00 86 1017.7
20260507003019 81 134 4.3 7.8 0.00 0.00 0.00 86 1017.7
20260507002507 81 142 3.5 7.8 0.00 0.00 0.00 86 1017.6
20260507002007 81 130 3.5 7.8 0.00 0.00 0.00 86 1017.6
20260507001525 81 132 1.7 6.1 0.00 0.00 0.00 85 1017.6
20260507001007 81 123 1.7 6.1 0.00 0.00 0.00 85 1017.6
20260507000507 81 116 2.6 7.8 0.00 0.00 0.00 85 1017.6
20260507000015 81 105 1.7 7.8 0.00 0.00 0.00 84 1017.5
20260506233507 82 150 3.5 7.0 0.00 0.00 0.00 83 1017.3
20260506233021 82 115 4.3 7.0 0.00 0.00 0.00 83 1017.3
20260506232506 82 148 3.5 7.8 0.00 0.00 0.00 83 1017.2
20260506232010 82 136 3.5 7.8 0.00 0.00 0.00 83 1017.0
20260506231522 83 138 3.5 8.7 0.00 0.00 0.00 83 1016.8
20260506231007 83 175 5.2 9.6 0.00 0.00 0.00 82 1016.8
20260506230506 83 137 5.2 9.6 0.00 0.00 0.00 82 1016.8
20260506230022 83 150 5.2 8.7 0.00 0.00 0.00 82 1016.7
20260506225508 83 146 4.3 7.8 0.00 0.00 0.00 81 1016.7
20260506225016 83 139 4.3 8.7 0.00 0.00 0.00 81 1016.7
20260506224517 83 137 3.5 8.7 0.00 0.00 0.00 80 1016.7
20260506224006 84 134 4.3 9.6 0.00 0.00 0.00 80 1016.7
20260506223505 84 157 1.7 10.4 0.00 0.00 0.00 79 1016.6
20260506223019 84 161 5.2 10.4 0.00 0.00 0.00 79 1016.5
20260506222506 84 149 5.2 10.4 0.00 0.00 0.00 78 1016.4
20260506222008 84 174 5.2 12.2 0.00 0.00 0.00 78 1016.3
20260506221517 85 146 4.3 12.2 0.00 0.00 0.00 77 1016.4
20260506221007 85 199 7.0 13.9 0.00 0.00 0.00 77 1016.3
20260506220507 85 134 4.3 13.9 0.00 0.00 0.00 77 1016.3
20260506220018 85 159 7.8 13.0 0.00 0.00 0.00 77 1016.3
20260506215510 85 170 6.1 12.2 0.00 0.00 0.00 76 1016.2
20260506215008 85 183 7.0 12.2 0.00 0.00 0.00 75 1016.2
20260506214520 86 157 4.3 12.2 0.00 0.00 0.00 75 1016.2
20260506214010 86 123 5.2 12.2 0.00 0.00 0.00 75 1016.1
20260506213505 86 158 6.1 11.3 0.00 0.00 0.00 74 1016.2
20260506213017 86 128 5.2 10.4 0.00 0.00 0.00 73 1016.0
20260506212505 86 142 4.3 11.3 0.00 0.00 0.00 74 1016.1
20260506212008 87 146 5.2 11.3 0.00 0.00 0.00 74 1016.1
20260506211522 86 102 6.1 11.3 0.00 0.00 0.00 74 1016.0
20260506211005 86 133 7.0 12.2 0.00 0.00 0.00 74 1016.0
20260506210507 87 159 7.0 12.2 0.00 0.00 0.00 73 1015.9
20260506210028 87 196 5.2 14.8 0.00 0.00 0.00 73 1015.9
20260506205509 87 161 7.0 14.8 0.00 0.00 0.00 73 1015.9
20260506205004 87 139 8.7 15.6 0.00 0.00 0.00 74 1015.8
20260506204511 87 127 8.7 15.6 0.00 0.00 0.00 73 1015.7
20260506204005 87 135 6.1 17.4 0.00 0.00 0.00 73 1015.8
20260506203504 87 179 4.3 17.4 0.00 0.00 0.00 74 1015.7
20260506203014 87 138 7.8 16.5 0.00 0.00 0.00 74 1015.8
20260506202507 87 123 7.0 13.9 0.00 0.00 0.00 73 1015.7
20260506202009 87 162 7.0 13.9 0.00 0.00 0.00 73 1015.8
20260506201520 88 172 5.2 13.9 0.00 0.00 0.00 72 1015.7
20260506201006 88 157 7.8 13.0 0.00 0.00 0.00 72 1015.7
20260506200505 87 161 5.2 18.2 0.00 0.00 0.00 72 1015.7
20260506200035 87 164 7.8 18.2 0.00 0.00 0.00 72 1015.7
20260506195508 88 171 7.8 13.9 0.00 0.00 0.00 72 1015.9
20260506195010 88 157 7.8 16.5 0.00 0.00 0.00 72 1015.9
20260506194518 88 153 10.4 16.5 0.00 0.00 0.00 70 1015.9
20260506194008 88 127 6.1 16.5 0.00 0.00 0.00 72 1015.9
20260506193505 88 178 8.7 16.5 0.00 0.00 0.00 70 1015.9
20260506193010 88 118 7.0 13.0 0.00 0.00 0.00 69 1015.9
20260506192504 88 182 6.1 14.8 0.00 0.00 0.00 70 1015.9